FW2996 Weather Reports


Display with metric or nautical units.
time (UTC)temp
F
wind
direction
speed
MPH
gust
MPH
rain 1hr
in
rain 24hr
in
rain mn
in
humidity
%
barometer
mb
20260507040612 60 11 1.0 6.0 0.00 0.00 0.00 90 1056.3
20260507040109 60 26 4.0 6.0 0.00 0.00 0.00 89 1056.1
20260507035604 60 25 3.0 4.0 0.00 0.00 0.00 89 1056.0
20260507035100 60 11 2.0 6.0 0.00 0.00 0.00 89 1056.3
20260507034557 60 345 4.0 4.0 0.00 0.00 0.00 89 1056.4
20260507034055 60 29 2.0 7.0 0.00 0.00 0.00 89 1056.6
20260507033553 60 26 3.0 6.0 0.00 0.00 0.00 88 1056.5
20260507033050 60 23 2.0 3.0 0.00 0.00 0.00 88 1056.6
20260507032547 61 5 1.0 3.0 0.00 0.00 0.00 88 1056.4
20260507032038 61 28 2.0 3.0 0.00 0.00 0.00 88 1056.2
20260507031534 61 17 2.0 3.0 0.00 0.00 0.00 88 1056.1
20260507031032 61 25 4.0 6.0 0.00 0.00 0.00 88 1056.1
20260507030528 61 20 4.0 7.0 0.00 0.00 0.00 88 1056.2
20260507030027 61 19 3.0 9.0 0.00 0.00 0.00 88 1056.1
20260507025523 61 12 2.0 6.0 0.00 0.00 0.00 88 1055.9
20260507025021 61 33 7.0 10.0 0.00 0.00 0.00 88 1055.7
20260507024518 61 347 5.0 8.0 0.00 0.00 0.00 88 1055.6
20260507024015 61 354 3.0 8.0 0.00 0.00 0.00 89 1055.7
20260507023510 61 19 3.0 4.0 0.00 0.00 0.00 89 1055.6
20260507023009 61 2 3.0 6.0 0.00 0.00 0.00 89 1055.7
20260507022505 61 11 4.0 6.0 0.00 0.00 0.00 89 1055.8
20260507022000 61 30 3.0 8.0 0.00 0.00 0.00 89 1055.5
20260507021456 61 8 2.0 6.0 0.00 0.00 0.00 89 1055.4
20260507020953 61 358 3.0 7.0 0.00 0.00 0.00 89 1055.5
20260507020450 61 0 2.0 3.0 0.00 0.00 0.00 89 1055.4
20260507015947 61 34 2.0 3.0 0.00 0.00 0.00 89 1055.1
20260507015446 61 9 2.0 4.0 0.00 0.00 0.00 89 1055.4
20260507014942 61 22 2.0 3.0 0.00 0.00 0.00 89 1055.3
20260507014439 61 7 1.0 4.0 0.00 0.00 0.00 89 1055.2
20260507013935 61 39 0.0 4.0 0.00 0.00 0.00 89 1055.0
20260507013432 61 18 2.0 3.0 0.00 0.00 0.00 89 1054.9
20260507012929 61 6 1.0 3.0 0.00 0.00 0.00 89 1054.7
20260507012425 61 2 1.0 6.0 0.00 0.00 0.00 89 1054.7
20260507011917 61 11 2.0 2.0 0.00 0.00 0.00 89 1054.7
20260507011414 61 356 1.0 2.0 0.00 0.00 0.00 88 1054.6
20260507010914 61 30 3.0 4.0 0.00 0.00 0.00 88 1054.6
20260507010409 61 26 4.0 7.0 0.00 0.00 0.00 88 1054.5
20260507005907 61 314 4.0 7.0 0.00 0.00 0.00 88 1054.2
20260507005403 61 0 2.0 3.0 0.00 0.00 0.00 88 1054.2
20260507004900 61 17 2.0 6.0 0.00 0.00 0.00 88 1054.7
20260507004357 61 33 2.0 7.0 0.00 0.00 0.00 88 1054.8
20260507003854 61 21 2.0 9.0 0.00 0.00 0.00 88 1054.2
20260507003349 61 19 3.0 6.0 0.00 0.00 0.00 88 1054.2
20260507002845 61 13 3.0 6.0 0.00 0.00 0.00 88 1053.9
20260507002341 61 22 2.0 7.0 0.00 0.00 0.00 87 1053.7
20260507001838 61 5 2.0 7.0 0.00 0.00 0.00 87 1054.1
20260507001335 61 339 5.0 9.0 0.00 0.00 0.00 87 1053.7
20260507000832 61 27 6.0 8.0 0.00 0.00 0.00 87 1053.6
20260507000328 61 11 1.0 7.0 0.00 0.00 0.00 88 1054.2
20260506235824 61 350 4.0 7.0 0.00 0.00 0.00 88 1053.9
20260506235320 61 16 4.0 11.0 0.00 0.00 0.00 88 1053.7
20260506234817 61 25 3.0 9.0 0.00 0.00 0.00 88 1053.7
20260506234315 61 8 4.0 6.0 0.00 0.00 0.00 88 1053.6
20260506233812 61 9 2.0 10.0 0.00 0.00 0.00 88 1053.7
20260506233308 61 355 2.0 13.0 0.00 0.00 0.00 87 1053.9
20260506232805 61 32 3.0 9.0 0.00 0.00 0.00 87 1053.9
20260506232300 61 14 2.0 6.0 0.00 0.00 0.00 88 1053.5
20260506231757 61 15 2.0 10.0 0.00 0.00 0.00 87 1053.3
20260506231255 61 7 4.0 7.0 0.00 0.00 0.00 88 1053.6
20260506230752 61 31 3.0 9.0 0.00 0.00 0.00 87 1053.5
20260506230249 61 4 3.0 8.0 0.00 0.00 0.00 88 1053.7
20260506225745 61 13 3.0 11.0 0.00 0.00 0.00 87 1053.6
20260506225242 61 357 2.0 8.0 0.00 0.00 0.00 87 1053.5
20260506224738 61 357 6.0 8.0 0.00 0.00 0.00 87 1053.8
20260506224236 61 351 4.0 8.0 0.00 0.00 0.00 87 1053.6
20260506223732 61 15 3.0 7.0 0.00 0.00 0.00 87 1053.6
20260506223227 62 23 3.0 4.0 0.00 0.00 0.00 86 1053.6
20260506222725 62 17 4.0 11.0 0.00 0.00 0.00 87 1053.5
20260506222220 61 349 3.0 13.0 0.00 0.00 0.00 87 1053.5
20260506221718 62 8 2.0 8.0 0.00 0.00 0.00 85 1053.7
20260506221216 62 23 3.0 8.0 0.00 0.00 0.00 85 1053.5
20260506220713 62 358 1.0 10.0 0.00 0.00 0.00 85 1053.2
20260506220208 62 20 2.0 8.0 0.00 0.00 0.00 85 1053.4
20260506215705 63 16 3.0 8.0 0.00 0.00 0.00 85 1053.4
20260506215200 62 348 5.0 9.0 0.00 0.00 0.00 86 1053.5
20260506214657 63 8 3.0 10.0 0.00 0.00 0.00 85 1053.5
20260506214154 62 21 4.0 10.0 0.00 0.00 0.00 86 1053.4
20260506213653 62 20 6.0 13.0 0.00 0.00 0.00 87 1053.5
20260506213150 62 15 3.0 14.0 0.00 0.00 0.00 87 1053.2
20260506212647 63 14 3.0 13.0 0.00 0.00 0.00 86 1053.2
20260506212141 63 27 2.0 14.0 0.00 0.00 0.00 86 1053.1
20260506211638 64 18 4.0 7.0 0.00 0.00 0.00 85 1053.2
20260506211134 63 347 6.0 11.0 0.00 0.00 0.00 85 1053.2
20260506210631 63 6 6.0 13.0 0.00 0.00 0.00 85 1053.5
20260506210128 64 7 8.0 14.0 0.00 0.00 0.00 85 1053.4
20260506205625 63 17 7.0 11.0 0.00 0.00 0.00 86 1053.4
20260506205119 64 23 4.0 13.0 0.00 0.00 0.00 86 1053.4
20260506204618 65 357 7.0 13.0 0.00 0.00 0.00 85 1053.4
20260506204115 66 21 4.0 6.0 0.00 0.00 0.00 83 1053.4
20260506203613 67 27 7.0 14.0 0.00 0.00 0.00 83 1053.3
20260506203109 65 25 3.0 7.0 0.00 0.00 0.00 86 1053.2
20260506202607 65 19 6.0 15.0 0.00 0.00 0.00 86 1053.4
20260506202103 66 35 6.0 10.0 0.00 0.00 0.00 84 1053.5
20260506201601 66 2 4.0 11.0 0.00 0.00 0.00 84 1053.5
20260506201057 68 9 7.0 11.0 0.00 0.00 0.00 83 1053.4
20260506200553 68 15 4.0 9.0 0.00 0.00 0.00 83 1053.4
20260506200050 68 9 4.0 8.0 0.00 0.00 0.00 84 1053.3
20260506195547 68 19 3.0 8.0 0.00 0.00 0.00 84 1053.1
20260506195038 69 10 4.0 7.0 0.00 0.00 0.00 82 1053.5
20260506194536 67 349 3.0 13.0 0.00 0.00 0.00 85 1053.1
20260506194032 68 350 9.0 16.0 0.00 0.00 0.00 84 1053.2
20260506193530 68 15 6.0 9.0 0.00 0.00 0.00 84 1053.2
20260506193027 67 5 5.0 8.0 0.00 0.00 0.00 85 1053.2
20260506192523 67 343 8.0 15.0 0.00 0.00 0.00 86 1053.1
20260506192019 67 3 6.0 11.0 0.00 0.00 0.00 86 1052.9
20260506191516 69 5 6.0 16.0 0.00 0.00 0.00 85 1053.2
20260506191012 69 22 9.0 14.0 0.00 0.00 0.00 84 1053.1
20260506190510 70 352 3.0 16.0 0.00 0.00 0.00 86 1053.1
20260506190007 72 12 3.0 11.0 0.00 0.00 0.00 85 1053.2
20260506185504 73 353 6.0 10.0 0.00 0.00 0.00 82 1053.4
20260506185000 75 7 6.0 9.0 0.00 0.00 0.00 80 1053.1
20260506184458 76 9 4.0 10.0 0.00 0.00 0.00 77 1052.9
20260506183954 77 10 5.0 8.0 0.00 0.00 0.00 75 1053.1
20260506183450 78 17 2.0 7.0 0.00 0.00 0.00 75 1052.9
20260506182947 78 27 0.0 2.0 0.00 0.00 0.00 76 1052.8
20260506182444 80 13 3.0 4.0 0.00 0.00 0.00 74 1052.7
20260506181941 79 76 1.0 4.0 0.00 0.00 0.00 73 1052.6
20260506181439 78 93 2.0 4.0 0.00 0.00 0.00 75 1052.7
20260506180936 77 106 2.0 3.0 0.00 0.00 0.00 76 1052.9
20260506180432 76 47 1.0 4.0 0.00 0.00 0.00 79 1052.8
20260506175929 76 25 2.0 3.0 0.00 0.00 0.00 76 1052.9
20260506175425 77 35 1.0 2.0 0.00 0.00 0.00 76 1052.9
20260506174922 75 41 4.0 6.0 0.00 0.00 0.00 78 1052.8
20260506174420 75 115 3.0 7.0 0.00 0.00 0.00 79 1052.7
20260506173917 74 120 2.0 7.0 0.00 0.00 0.00 80 1052.7
20260506173414 74 128 1.0 2.0 0.00 0.00 0.00 79 1052.6
20260506172911 73 50 1.0 4.0 0.00 0.00 0.00 80 1052.8
20260506172407 73 84 2.0 4.0 0.00 0.00 0.00 78 1053.1
20260506171905 73 142 3.0 8.0 0.00 0.00 0.00 79 1052.9
20260506171402 72 73 2.0 7.0 0.00 0.00 0.00 81 1053.1
20260506170859 72 42 2.0 4.0 0.00 0.00 0.00 80 1052.9
20260506170355 70 81 6.0 8.0 0.00 0.00 0.00 82 1053.0
20260506165849 68 32 1.0 4.0 0.00 0.00 0.00 84 1052.9
20260506165346 69 148 3.0 7.0 0.00 0.00 0.00 83 1053.1
20260506164842 69 50 2.0 6.0 0.00 0.00 0.00 84 1053.2
20260506164339 68 45 2.0 8.0 0.00 0.00 0.00 86 1053.4
20260506163837 67 79 0.0 10.0 0.00 0.00 0.00 87 1053.5
20260506163331 67 34 2.0 6.0 0.00 0.00 0.00 85 1053.7
20260506162827 66 94 3.0 6.0 0.00 0.00 0.00 86 1053.6
20260506162325 66 345 4.0 10.0 0.00 0.00 0.00 86 1053.7
20260506161817 65 33 1.0 4.0 0.00 0.00 0.00 90 1053.4
20260506161314 64 335 4.0 9.0 0.00 0.00 0.00 91 1053.9
20260506160811 64 20 3.0 9.0 0.00 0.00 0.00 92 1054.3
20260506160308 65 358 4.0 13.0 0.00 0.00 0.00 91 1054.6
20260506155807 65 21 4.0 10.0 0.00 0.00 0.00 91 1054.7
20260506155306 66 15 5.0 9.0 0.00 0.00 0.00 91 1054.6
20260506153415 73 18 2.0 7.0 0.00 0.00 0.00 87 1053.2
20260506152913 77 67 1.0 2.0 0.00 0.00 0.00 89 1053.0
20260506152409 77 160 0.0 0.0 0.00 0.00 0.00 89 1053.0
20260506151908 76 160 0.0 0.0 0.00 0.00 0.00 90 1052.8
20260506151404 76 160 1.0 2.0 0.00 0.00 0.00 90 1052.3
20260506150902 76 149 1.0 2.0 0.00 0.00 0.00 90 1052.7
20260506150358 76 148 2.0 3.0 0.00 0.00 0.00 90 1052.4
20260506145855 76 146 2.0 2.0 0.00 0.00 0.00 90 1052.4
20260506145351 76 188 1.0 2.0 0.00 0.00 0.00 90 1052.4
20260506144849 76 134 2.0 4.0 0.00 0.00 0.00 90 1052.1
20260506144345 76 153 2.0 7.0 0.00 0.00 0.00 90 1051.9
20260506143844 76 178 3.0 4.0 0.00 0.00 0.00 90 1052.0
20260506143340 76 168 4.0 7.0 0.00 0.00 0.00 91 1051.9
20260506142839 76 188 3.0 4.0 0.00 0.00 0.00 91 1052.0
20260506142336 75 141 4.0 6.0 0.00 0.00 0.00 93 1051.8
20260506141834 75 138 4.0 7.0 0.00 0.00 0.00 93 1051.3
20260506141332 74 142 2.0 4.0 0.00 0.00 0.00 95 1051.3
20260506140830 74 126 2.0 6.0 0.00 0.00 0.00 96 1051.5
20260506140327 74 122 4.0 4.0 0.00 0.00 0.00 95 1051.9
20260506135824 74 123 1.0 3.0 0.00 0.00 0.00 96 1052.0
20260506135320 74 123 1.0 1.0 0.00 0.00 0.00 96 1051.8
20260506134817 74 124 0.0 0.0 0.00 0.00 0.00 97 1051.5
20260506134313 73 124 4.0 6.0 0.00 0.00 0.00 97 1051.3
20260506133810 73 129 5.0 6.0 0.00 0.00 0.00 96 1051.1
20260506133307 74 115 2.0 3.0 0.00 0.00 0.00 97 1051.2
20260506132804 73 124 4.0 6.0 0.00 0.00 0.00 97 1051.2
20260506132301 74 142 3.0 6.0 0.00 0.00 0.00 97 1051.1
20260506131759 74 122 3.0 4.0 0.00 0.00 0.00 96 1051.2
20260506131254 73 131 2.0 4.0 0.00 0.00 0.00 97 1050.8
20260506130751 73 119 3.0 4.0 0.00 0.00 0.00 97 1050.7
20260506130248 73 119 2.0 4.0 0.00 0.00 0.00 97 1050.8
20260506125746 73 116 3.0 3.0 0.00 0.00 0.00 97 1050.6
20260506125244 73 116 1.0 3.0 0.00 0.00 0.00 98 1050.5
20260506124742 73 113 2.0 3.0 0.00 0.00 0.00 98 1050.5
20260506124240 73 126 4.0 4.0 0.00 0.00 0.00 98 1050.5
20260506123737 73 119 2.0 4.0 0.00 0.00 0.00 98 1050.5
20260506123236 73 109 1.0 2.0 0.00 0.00 0.00 98 1050.4
20260506122732 73 168 2.0 3.0 0.00 0.00 0.00 98 1050.3
20260506122229 73 170 2.0 2.0 0.00 0.00 0.00 98 1050.3
20260506121728 73 227 0.0 2.0 0.00 0.00 0.00 98 1050.3
20260506121224 73 227 0.0 0.0 0.00 0.00 0.00 98 1050.6
20260506120722 73 227 0.0 0.0 0.00 0.00 0.00 98 1050.5
20260506120219 73 227 0.0 0.0 0.00 0.00 0.00 98 1050.4
20260506115717 73 227 0.0 0.0 0.00 0.00 0.00 98 1050.4
20260506115215 73 227 0.0 0.0 0.00 0.00 0.00 97 1050.6
20260506114712 73 227 0.0 1.0 0.00 0.00 0.00 97 1050.4
20260506114209 73 227 0.0 0.0 0.00 0.00 0.00 97 1050.5
20260506113708 73 227 0.0 0.0 0.00 0.00 0.00 97 1050.4
20260506113205 73 227 0.0 0.0 0.00 0.00 0.00 97 1050.4
20260506112701 73 227 0.0 0.0 0.00 0.00 0.00 97 1050.3
20260506112159 73 228 0.0 0.0 0.00 0.00 0.00 96 1050.5
20260506111656 73 227 0.0 0.0 0.00 0.00 0.00 96 1050.5
20260506111154 73 227 0.0 0.0 0.00 0.00 0.00 96 1050.3
20260506110651 73 227 0.0 0.0 0.00 0.00 0.00 96 1050.4
20260506110148 73 227 0.0 0.0 0.00 0.00 0.00 96 1050.2
20260506105644 73 227 0.0 0.0 0.00 0.00 0.00 96 1050.5
20260506105141 73 227 0.0 0.0 0.00 0.00 0.00 96 1050.3
20260506104640 73 228 0.0 0.0 0.00 0.00 0.00 96 1050.0
20260506104137 73 227 1.0 1.0 0.00 0.00 0.00 96 1050.3
20260506103634 74 228 0.0 1.0 0.00 0.00 0.00 96 1050.2
20260506103131 74 156 0.0 2.0 0.00 0.00 0.00 96 1050.2
20260506102629 74 158 0.0 2.0 0.00 0.00 0.00 96 1050.1
20260506102126 74 152 2.0 3.0 0.00 0.00 0.00 96 1050.0
20260506101623 74 176 3.0 6.0 0.00 0.00 0.00 96 1050.0
20260506101119 73 151 1.0 3.0 0.00 0.00 0.00 96 1049.7
20260506100618 73 184 1.0 6.0 0.00 0.00 0.00 96 1049.9
20260506100116 73 161 2.0 3.0 0.00 0.00 0.00 96 1049.7
20260506095615 73 172 0.0 2.0 0.00 0.00 0.00 97 1049.7
20260506095111 73 206 1.0 4.0 0.00 0.00 0.00 97 1049.7
20260506094608 73 186 2.0 6.0 0.00 0.00 0.00 97 1049.8
20260506094106 73 140 1.0 3.0 0.00 0.00 0.00 98 1049.7
20260506093604 73 157 0.0 3.0 0.00 0.00 0.00 98 1049.5
20260506093101 73 180 2.0 6.0 0.00 0.00 0.00 98 1049.4
20260506092559 73 171 2.0 4.0 0.00 0.00 0.00 98 1049.5
20260506092055 73 200 4.0 6.0 0.00 0.00 0.00 98 1049.6
20260506091554 73 168 3.0 11.0 0.00 0.00 0.00 98 1049.5
20260506091051 73 163 2.0 9.0 0.00 0.00 0.00 97 1049.4
20260506090549 74 186 4.0 4.0 0.00 0.00 0.00 96 1049.4
20260506090045 74 183 4.0 11.0 0.00 0.00 0.00 96 1049.1
20260506085542 74 201 5.0 9.0 0.00 0.00 0.00 95 1049.1
20260506085038 74 177 2.0 7.0 0.00 0.00 0.00 95 1049.3
20260506084535 74 170 2.0 4.0 0.00 0.00 0.00 95 1049.1
20260506084031 74 176 2.0 2.0 0.00 0.00 0.00 95 1049.2
20260506083529 74 199 1.0 6.0 0.00 0.00 0.00 95 1049.1
20260506083026 74 142 4.0 7.0 0.00 0.00 0.00 95 1049.4
20260506082523 74 203 3.0 6.0 0.00 0.00 0.00 95 1049.3
20260506082018 74 150 2.0 7.0 0.00 0.00 0.00 95 1049.1
20260506081517 74 184 2.0 6.0 0.00 0.00 0.00 95 1049.3
20260506081014 74 186 5.0 9.0 0.00 0.00 0.00 95 1049.4
20260506080511 74 190 4.0 9.0 0.00 0.00 0.00 94 1049.4
20260506073455 74 148 4.0 7.0 0.00 0.00 0.00 93 1049.5
20260506072952 74 171 5.0 10.0 0.00 0.00 0.00 93 1049.5
20260506072449 74 197 5.0 7.0 0.00 0.00 0.00 93 1049.7
20260506071947 74 186 4.0 9.0 0.00 0.00 0.00 93 1049.8
20260506071444 75 128 4.0 10.0 0.00 0.00 0.00 92 1049.7
20260506070941 75 196 4.0 8.0 0.00 0.00 0.00 92 1049.9
20260506070438 75 195 3.0 4.0 0.00 0.00 0.00 92 1049.9
20260506062416 75 208 2.0 8.0 0.00 0.00 0.00 93 1049.8
20260506061911 75 212 4.0 10.0 0.00 0.00 0.00 93 1049.7
20260506061408 75 156 4.0 9.0 0.00 0.00 0.00 93 1049.8
20260506060906 75 186 2.0 6.0 0.00 0.00 0.00 93 1049.8
20260506060404 75 163 4.0 8.0 0.00 0.00 0.00 93 1049.8
20260506051336 75 161 6.0 10.0 0.00 0.00 0.00 93 1049.9
20260506050833 75 151 5.0 8.0 0.00 0.00 0.00 92 1049.9
20260506050330 75 217 4.0 9.0 0.00 0.00 0.00 92 1049.9
20260506044821 75 165 2.0 3.0 0.00 0.00 0.00 93 1049.9
20260506044319 75 185 3.0 9.0 0.00 0.00 0.00 93 1049.9
20260506043816 75 180 6.0 9.0 0.00 0.00 0.00 93 1050.0
20260506043313 75 148 2.0 4.0 0.00 0.00 0.00 93 1049.9
20260506042811 75 176 6.0 10.0 0.00 0.00 0.00 93 1049.9
20260506042310 75 168 2.0 9.0 0.00 0.00 0.00 93 1049.9
20260506041809 75 182 3.0 7.0 0.00 0.00 0.00 93 1050.0
20260506041305 75 137 3.0 6.0 0.00 0.00 0.00 93 1049.7